User: anonymous   Login
Location: Ab? ar R?sh Ba?r?
(24.1861°N, 32.8847°E)
Time: 15:44:01
(UTC+00:00)
Language:

IRIS - Orbit

View from above orbital plane
View from above orbital plane
View from above satellite
View from above satellite

Ground track
Ground track

The orbit data is extracted from the following two-line orbital elements,

1 22196U 92070D   22022.86965099  .00027950  29954-5  69638-3 0  9990
2 22196  41.1449 172.7266 1481456 196.6428 158.0159 12.56535424172300
Epoch (UTC): 22 January 2022 20:52:17
Eccentricity: 0.1481456
inclination: 41.1449°
perigee height: 279 km
apogee height: 2595 km
right ascension of ascending node: 172.7266°
argument of perigee: 196.6428°
revolutions per day: 12.56535424
mean anomaly at epoch: 158.0159°
orbit number at epoch: 17230

The dashed part of the orbit path shows where the satellite is in the earth's shadow,  

DLR